Weather History for YBBN - November, 2013

Change the Weather History Date:

Wednesday, November 20, 2013

  Actual Average Record
Temperature  
Mean Temperature 72 °F -  
Max Temperature 80 °F 83 °F 82 °F (2005)
Min Temperature 63 °F 67 °F 55 °F (2001)
Cooling Degree Days 6    
Growing Degree Days 22 (Base 50)    
Moisture  
Dew Point 62 °F    
Average Humidity 68    
Maximum Humidity 94    
Minimum Humidity 41    
Precipitation  
Precipitation 0.00 in 0.16 in - ()
Sea Level Pressure  
Sea Level Pressure 29.82 in    
Wind  
Wind Speed 6 mph ()    
Max Wind Speed 15 mph    
Max Gust Speed -    
Visibility 7.9 miles    
Events      
Averages and records for this station are not official NWS values.
T = Trace of Precipitation, MM = Missing Value Source: Averaged Metar Reports

Daily Weather History Graph

Daily Weather History Graph

Search for Another Location

Airport or City:

Trip Planner

Search our weather history database for the weather conditions in past years. The results will help you decide how hot, cold, wet, or windy it might be!

Date:

Astronomy

Nov. 20, 2013 Rise Set
Actual Time 4:46 AM AEST 6:20 PM AEST
Civil Twilight 4:20 AM AEST 6:45 PM AEST
Nautical Twilight 3:50 AM AEST 7:16 PM AEST
Astronomical Twilight 3:18 AM AEST 7:48 PM AEST
Moon 8:29 PM AEST (11/20) 6:37 AM AEST (11/20)
Length of Visible Light 14h 24m
Length of Day
13h 33m
Waning Gibbous, 94% of the Moon is Illuminated
Nov 20
Waning Gibbous
Nov 26
Last Quarter
Dec 3
New
Dec 10
First Quarter
Dec 17
Full

Hourly Weather History & Observations

Time (AEST) Temp. Heat Index Dew Point Humidity Pressure Visibility Wind Dir Wind Speed Gust Speed Precip Events Conditions
12:00 AM 69 °F - 62 °F 72% 29.83 in 19 mi ESE 4.6 mph - -   Partly Cloudy
12:00 AM 69.8 °F - 62.6 °F 78% 29.83 in 6.2 mi ESE 4.6 mph - N/A   Partly Cloudy
12:30 AM 68.0 °F - 62.6 °F 83% 29.80 in 6.2 mi Calm Calm - N/A   Partly Cloudy
1:00 AM 67 °F - 62 °F 78% 29.82 in - Calm Calm - -  
1:00 AM 68.0 °F - 62.6 °F 83% 29.80 in 6.2 mi Calm Calm - N/A   Partly Cloudy
1:30 AM 66.2 °F - 62.6 °F 88% 29.80 in - South 4.6 mph - N/A   Clear
2:00 AM 68.0 °F - 60.8 °F 78% 29.80 in - SSE 3.5 mph - N/A   Clear
2:30 AM 68.0 °F - 62.6 °F 83% 29.80 in - SSE 3.5 mph - N/A   Clear
3:00 AM 69 °F - 61 °F 69% 29.79 in 19 mi SE 5.8 mph - -  
3:00 AM 69.8 °F - 60.8 °F 73% 29.77 in - SE 5.8 mph - N/A   Clear
3:30 AM 69.8 °F - 60.8 °F 73% 29.77 in - SE 5.8 mph - N/A   Clear
4:00 AM 68 °F - 61 °F 71% 29.81 in - SE 4.6 mph - -  
4:00 AM 68.0 °F - 60.8 °F 78% 29.80 in - SE 4.6 mph - N/A   Clear
4:30 AM 64.4 °F - 60.8 °F 88% 29.80 in 6.2 mi South 5.8 mph - N/A   Partly Cloudy
5:00 AM 64.4 °F - 60.8 °F 88% 29.80 in 6.2 mi SSW 6.9 mph - N/A   Partly Cloudy
5:30 AM 64.4 °F - 62.6 °F 94% 29.83 in 6.2 mi SSW 5.8 mph - N/A   Partly Cloudy
6:00 AM 67 °F - 62 °F 79% 29.85 in 19 mi SW 6.9 mph - -   Partly Cloudy
6:00 AM 68.0 °F - 62.6 °F 83% 29.83 in 6.2 mi SW 6.9 mph - N/A   Partly Cloudy
6:30 AM 69.8 °F - 62.6 °F 78% 29.83 in 6.2 mi South 8.1 mph - N/A   Partly Cloudy
7:00 AM 71 °F - 62 °F 67% 29.87 in - SSW 8.1 mph - -  
7:00 AM 71.6 °F - 62.6 °F 73% 29.86 in 6.2 mi SSW 8.1 mph - N/A   Partly Cloudy
7:30 AM 73.4 °F - 60.8 °F 65% 29.86 in 6.2 mi SW 8.1 mph - N/A   Partly Cloudy
8:00 AM 75.2 °F - 60.8 °F 61% 29.86 in 6.2 mi SW 5.8 mph - N/A   Partly Cloudy
8:30 AM 75.2 °F - 60.8 °F 61% 29.86 in 6.2 mi SW 5.8 mph - N/A   Partly Cloudy
9:00 AM 76 °F - 60 °F 47% 29.86 in 19 mi SSE 5.8 mph - -   Partly Cloudy
9:00 AM 75.2 °F - 59.0 °F 57% 29.86 in 6.2 mi SSE 5.8 mph - N/A   Scattered Clouds
9:30 AM 77.0 °F - 60.8 °F 57% 29.86 in 6.2 mi WNW 4.6 mph - N/A   Scattered Clouds
10:00 AM 77 °F - 61 °F 48% 29.86 in - East 8.1 mph - -  
10:00 AM 77.0 °F - 60.8 °F 57% 29.83 in 6.2 mi East 8.1 mph - N/A   Scattered Clouds
10:30 AM 77.0 °F - 60.8 °F 57% 29.83 in 6.2 mi NE 10.4 mph - N/A   Scattered Clouds
11:00 AM 78.8 °F - 60.8 °F 54% 29.83 in 6.2 mi NE 11.5 mph - N/A   Scattered Clouds
11:30 AM 80.6 °F 81.5 °F 60.8 °F 51% 29.83 in 6.2 mi NE 15.0 mph - N/A   Scattered Clouds
12:00 PM 80 °F - 60 °F 41% 29.83 in 19 mi NE 11.5 mph - -   Partly Cloudy
12:00 PM 78.8 °F - 60.8 °F 54% 29.80 in 6.2 mi NE 11.5 mph - N/A   Scattered Clouds
12:30 PM 78.8 °F - 59.0 °F 51% 29.80 in 6.2 mi NE 15.0 mph - N/A   Scattered Clouds
1:00 PM 79 °F - 60 °F 43% 29.81 in - ENE 13.8 mph - -  
1:00 PM 78.8 °F - 60.8 °F 54% 29.80 in 6.2 mi ENE 13.8 mph - N/A   Scattered Clouds
1:30 PM 78.8 °F - 62.6 °F 57% 29.80 in 6.2 mi ENE 15.0 mph - N/A   Scattered Clouds
2:00 PM 78.8 °F - 64.4 °F 61% 29.77 in 6.2 mi ENE 12.7 mph - N/A   Partly Cloudy
2:30 PM 78.8 °F - 66.2 °F 65% 29.77 in 6.2 mi ENE 12.7 mph - N/A   Partly Cloudy
3:00 PM 79 °F - 65 °F 53% 29.79 in 16 mi ENE 13.8 mph - -   Haze
3:00 PM 78.8 °F - 64.4 °F 61% 29.77 in 6.2 mi ENE 13.8 mph - N/A   Partly Cloudy
3:30 PM 77.0 °F - 64.4 °F 65% 29.77 in 6.2 mi ESE 12.7 mph - N/A   Partly Cloudy
4:00 PM 77 °F - 64 °F 55% 29.79 in - ESE 12.7 mph - -  
4:00 PM 77.0 °F - 64.4 °F 65% 29.77 in 6.2 mi ESE 12.7 mph - N/A   Partly Cloudy
4:30 PM 77.0 °F - 62.6 °F 61% 29.80 in 6.2 mi ESE 10.4 mph - N/A   Partly Cloudy
5:00 PM 75.2 °F - 62.6 °F 65% 29.80 in 6.2 mi ESE 10.4 mph - N/A   Partly Cloudy
5:30 PM 75.2 °F - 62.6 °F 65% 29.80 in 6.2 mi ESE 12.7 mph - N/A   Partly Cloudy
6:00 PM 74 °F - 64 °F 64% 29.82 in 12 mi ESE 10.4 mph - -   Haze
6:00 PM 73.4 °F - 64.4 °F 73% 29.80 in 6.2 mi ESE 10.4 mph - N/A   Partly Cloudy
6:30 PM 73.4 °F - 64.4 °F 73% 29.83 in 6.2 mi ESE 8.1 mph - N/A   Partly Cloudy
7:00 PM 73 °F - 65 °F 69% 29.84 in - ESE 10.4 mph - -  
7:00 PM 73.4 °F - 64.4 °F 73% 29.83 in - ESE 10.4 mph - N/A   Unknown
7:30 PM 73.4 °F - 64.4 °F 73% 29.83 in 6.2 mi ESE 9.2 mph - N/A   Scattered Clouds
8:00 PM 73.4 °F - 64.4 °F 73% 29.86 in 6.2 mi ESE 10.4 mph - N/A   Partly Cloudy
8:30 PM 71.6 °F - 64.4 °F 78% 29.86 in 6.2 mi SE 8.1 mph - N/A   Partly Cloudy
9:00 PM 72 °F - 64 °F 71% 29.87 in - SE 8.1 mph - -  
9:00 PM 71.6 °F - 64.4 °F 78% 29.86 in - SE 8.1 mph - N/A   Unknown
9:30 PM 71.6 °F - 64.4 °F 78% 29.86 in 6.2 mi SE 6.9 mph - N/A   Scattered Clouds
10:00 PM 72 °F - 64 °F 69% 29.88 in - SE 8.1 mph - -  
10:00 PM 71.6 °F - 64.4 °F 78% 29.86 in 6.2 mi SE 8.1 mph - N/A   Scattered Clouds
10:30 PM 71.6 °F - 64.4 °F 78% 29.86 in 6.2 mi SE 8.1 mph - N/A   Scattered Clouds
11:00 PM 71.6 °F - 64.4 °F 78% 29.89 in 6.2 mi SE 5.8 mph - N/A   Mostly Cloudy
11:30 PM 71.6 °F - 64.4 °F 78% 29.89 in 6.2 mi SE 5.8 mph - N/A   Mostly Cloudy